BI4AKC-13 Weather Reports


time (UTC)temp
F
wind
direction
speed
knots
gust
knots
rain 1hr
in
rain 24hr
in
rain mn
in
humidity
%
barometer
mb
20260904222306 81 124 0.0 6.1 0.00 0.00 0.00 85
20260904221845 81 194 0.0 2.6 0.00 0.00 0.00 85
20260904221439 81 182 0.0 0.0 0.00 0.00 0.00 85
20260904221009 81 226 0.9 1.7 0.00 0.00 0.00 85
20260904220632 81 115 0.0 2.6 0.00 0.00 0.00 85
20260904220549 81 115 0.0 2.6 0.00 0.00 0.00 85
20260904215654 81 115 0.0 3.5 0.00 0.00 0.00 85
20260904215239 81 154 0.9 1.7 0.00 0.23 0.00 84
20260904214744 81 140 0.0 4.3 0.00 0.00 0.00 85
20260904214326 81 176 0.0 2.6 0.00 0.00 0.00 85
20260904213904 81 143 0.0 3.5 0.00 0.00 0.00 85
20260904213454 81 137 0.0 1.7 0.00 0.00 0.00 85
20260904213019 81 182 0.0 0.9 0.00 0.00 0.00 86
20260904212539 81 102 0.0 0.0 0.00 0.00 0.00 85
20260904212049 81 169 0.0 0.0 0.00 0.00 0.00 85
20260904211639 81 117 0.0 3.5 0.00 0.00 0.00 85
20260904211229 81 160 0.0 3.5 0.00 0.00 0.00 85
20260904210824 81 124 0.0 0.9 0.00 0.00 0.00 84
20260904210414 81 173 0.0 0.0 0.00 0.00 0.00 85
20260904210009 81 161 0.0 0.9 0.00 0.00 0.00 85
20260904205535 81 117 0.0 1.7 0.00 0.00 0.00 84
20260904205129 81 130 0.0 1.7 0.00 0.23 0.00 84
20260904204654 81 134 0.0 1.7 0.00 0.00 0.00 84
20260904204159 81 106 0.0 0.9 0.00 0.00 0.00 85
20260904203724 81 126 0.0 0.9 0.00 0.00 0.00 83
20260904203324 81 169 0.0 0.0 0.00 0.00 0.00 84
20260904202829 81 153 0.0 0.9 0.00 0.00 0.00 85
20260904202359 81 167 0.0 0.0 0.00 0.00 0.00 84
20260904201944 81 170 0.0 0.0 0.00 0.00 0.00 83
20260904201544 81 119 0.0 2.6 0.00 0.00 0.00 85
20260904201119 81 151 0.0 0.0 0.00 0.00 0.00 84
20260904200654 81 116 0.0 1.7 0.00 0.00 0.00 84
20260904200229 81 195 0.0 0.0 0.00 0.00 0.00 85
20260904195759 81 177 0.0 2.6 0.00 0.00 0.00 84
20260904195309 81 146 0.0 2.6 0.00 0.23 0.00 83
20260904194904 81 168 0.0 1.7 0.00 0.00 0.00 83
20260904194454 81 57 0.0 1.7 0.00 0.00 0.00 82
20260904194044 81 140 0.0 0.9 0.00 0.00 0.00 82
20260904193639 81 112 0.0 1.7 0.00 0.00 0.00 81
20260904193224 81 121 0.0 0.0 0.00 0.00 0.00 83
20260904192803 81 145 0.0 0.9 0.00 0.00 0.00 82
20260904192309 81 171 0.0 0.9 0.00 0.00 0.00 84
20260904191904 81 95 0.0 0.0 0.00 0.00 0.00 81
20260904191454 81 144 0.0 2.6 0.00 0.00 0.00 83
20260904191034 81 25 0.0 0.0 0.00 0.00 0.00 82
20260904190602 81 179 0.0 0.0 0.00 0.00 0.00 83
20260904190134 81 140 0.0 0.0 0.00 0.00 0.00 83
20260904185644 81 127 0.0 0.9 0.00 0.00 0.00 82
20260904185224 81 132 0.9 1.7 0.00 0.23 0.00 81
20260904184759 81 182 0.0 2.6 0.00 0.00 0.00 79
20260904184334 81 214 0.0 2.6 0.00 0.00 0.00 82
20260904183926 81 153 0.9 2.6 0.00 0.00 0.00 81
20260904183444 81 131 0.9 1.7 0.00 0.00 0.00 82
20260904182949 81 159 0.0 0.0 0.00 0.00 0.00 84
20260904182509 81 134 0.0 0.0 0.00 0.00 0.00 82
20260904182049 81 222 0.9 0.9 0.00 0.00 0.00 81
20260904181614 81 158 0.0 1.7 0.00 0.00 0.00 83
20260904181149 81 158 0.9 1.7 0.00 0.00 0.00 82
20260904180714 81 172 0.9 3.5 0.00 0.00 0.00 82
20260904180229 81 190 0.0 3.5 0.00 0.00 0.00 82
20260904175756 81 146 0.0 2.6 0.00 0.00 0.00 81
20260904175349 81 89 0.9 0.9 0.00 0.23 0.00 84
20260904174949 81 73 0.9 3.5 0.00 0.00 0.00 83
20260904174537 81 165 0.9 3.5 0.00 0.00 0.00 84
20260904174119 81 199 0.9 5.2 0.00 0.00 0.00 84
20260904173649 81 156 0.9 3.5 0.00 0.00 0.00 83
20260904173215 81 173 0.9 3.5 0.00 0.00 0.00 83
20260904172754 81 182 0.0 4.3 0.00 0.00 0.00 87
20260904172354 81 199 0.0 1.7 0.00 0.00 0.00 84
20260904171859 81 132 0.9 1.7 0.00 0.00 0.00 87
20260904171404 81 349 0.0 4.3 0.00 0.00 0.00 86
20260904170924 81 129 0.9 3.5 0.00 0.00 0.00 85
20260904170429 81 170 0.9 7.0 0.00 0.00 0.00 85
20260904170014 81 110 0.9 1.7 0.00 0.00 0.00 85
20260904165604 81 177 0.0 0.0 0.00 0.00 0.00 86
20260904165139 81 108 0.0 0.9 0.00 0.23 0.00 86
20260904164724 81 241 0.0 2.6 0.00 0.00 0.00 86
20260904164229 81 164 0.0 1.7 0.00 0.00 0.00 85
20260904163828 81 152 0.0 2.6 0.00 0.00 0.00 85
20260904163339 81 205 0.0 2.6 0.00 0.00 0.00 85
20260904162854 81 103 0.0 0.0 0.00 0.00 0.00 85
20260904162439 81 115 0.0 0.9 0.00 0.00 0.00 87
20260904161939 81 145 0.9 0.0 0.00 0.00 0.00 85
20260904161454 81 128 0.0 1.7 0.00 0.00 0.00 87
20260904161044 81 176 0.0 1.7 0.00 0.00 0.00 86
20260904160639 81 113 0.0 0.9 0.00 0.00 0.00 86
20260904160229 81 146 0.9 0.9 0.00 0.00 0.00 87
20260904155754 81 128 0.9 0.9 0.00 0.00 0.00 87
20260904155339 81 170 0.9 0.9 0.00 0.23 0.00 86
20260904154914 81 134 0.0 4.3 0.00 0.00 0.00 85
20260904154414 81 174 0.0 1.7 0.00 0.00 0.00 88
20260904153944 81 161 0.0 0.0 0.00 0.00 0.00 87
20260904153454 81 156 0.0 1.7 0.00 0.00 0.00 87
20260904153049 81 204 0.0 1.7 0.00 0.00 0.00 86
20260904152554 81 128 0.0 2.6 0.00 0.00 0.00 85
20260904152114 81 116 0.0 0.0 0.00 0.00 0.00 88
20260904151709 81 119 0.0 1.7 0.00 0.00 0.00 86
20260904151254 81 159 0.0 0.9 0.00 0.00 0.00 87
20260904150834 81 187 0.9 0.0 0.00 0.00 0.00 87
20260904150349 81 130 0.0 3.5 0.00 0.00 0.00 86
20260904145944 81 163 0.0 0.0 0.00 0.00 0.00 87
20260904145519 81 199 0.0 0.9 0.00 0.00 0.00 87
20260904145119 81 143 0.0 0.0 0.00 0.23 0.00 88
20260904144624 81 257 0.0 0.0 0.00 0.00 0.00 87
20260904144214 81 125 0.0 0.9 0.00 0.00 0.00 87
20260904143724 81 187 0.0 0.9 0.00 0.00 0.00 88
20260904143314 81 103 0.0 1.7 0.00 0.00 0.00 86
20260904142859 81 155 0.0 1.7 0.00 0.00 0.00 89
20260904142449 81 198 0.0 0.0 0.00 0.00 0.00 88
20260904142009 81 136 0.9 2.6 0.00 0.00 0.00 87
20260904141513 81 192 0.9 2.6 0.00 0.00 0.00 87
20260904141014 80 167 0.9 3.5 0.00 0.00 0.00 90
20260904140514 81 46 0.9 3.5 0.00 0.00 0.00 91
20260904140024 81 158 0.9 3.5 0.00 0.00 0.00 92
20260904135609 80 168 0.0 2.6 0.00 0.00 0.00 92
20260904135134 80 0 1.7 2.6 0.00 0.23 0.00 93
20260904134634 80 194 1.7 2.6 0.00 0.00 0.00 93
20260904134204 80 142 0.9 2.6 0.00 0.00 0.00 93
20260904133704 80 175 0.9 1.7 0.00 0.00 0.00 94
20260904133214 80 146 0.9 0.9 0.00 0.00 0.00 93
20260904132759 80 210 0.0 4.3 0.00 0.00 0.00 94
20260904132339 80 129 0.0 1.7 0.00 0.00 0.00 95
20260904131854 80 199 0.9 3.5 0.00 0.00 0.00 94
20260904131449 80 199 0.9 3.5 0.00 0.00 0.00 94
20260904131039 80 161 0.9 3.5 0.00 0.00 0.00 94
20260904130624 80 166 0.9 2.6 0.00 0.00 0.00 95
20260904130159 80 154 0.9 2.6 0.00 0.00 0.00 95
20260904125724 80 195 0.9 3.5 0.00 0.00 0.00 95
20260904125259 80 49 1.7 4.3 0.00 0.23 0.00 94
20260904124859 80 185 1.7 2.6 0.00 0.00 0.00 95
20260904124419 80 135 0.9 2.6 0.00 0.00 0.00 95
20260904123948 80 188 0.9 2.6 0.00 0.00 0.00 94
20260904123520 80 241 1.7 4.3 0.00 0.00 0.00 96
20260904123039 80 181 0.9 3.5 0.00 0.00 0.00 95
20260904122554 80 204 0.9 5.2 0.00 0.00 0.00 95
20260904122139 80 122 0.9 3.5 0.00 0.00 0.00 95
20260904121702 80 105 0.0 4.3 0.00 0.00 0.00 96
20260904121204 80 13 1.7 1.7 0.00 0.00 0.00 96
20260904120704 80 119 1.7 0.0 0.00 0.00 0.00 96
20260904120239 80 145 0.9 7.0 0.00 0.00 0.00 96
20260904115834 80 170 0.0 1.7 0.00 0.00 0.00 97
20260904115409 80 199 0.0 2.6 0.00 0.23 0.00 97
20260904114944 80 132 1.7 3.5 0.00 0.00 0.00 96
20260904114519 80 163 0.0 5.2 0.00 0.00 0.00 97
20260904114104 80 248 0.0 2.6 0.00 0.00 0.00 97
20260904113639 80 143 0.0 0.0 0.00 0.00 0.00 97
20260904113204 80 144 0.0 0.9 0.00 0.00 0.00 98
20260904112734 80 128 0.9 2.6 0.00 0.00 0.00 98
20260904112259 80 153 0.0 4.3 0.00 0.00 0.00 98
20260904111804 80 333 0.9 2.6 0.00 0.00 0.00 98
20260904111359 80 162 1.7 4.3 0.00 0.00 0.00 98
20260904110944 80 154 1.7 1.7 0.00 0.00 0.00 98
20260904110514 79 109 1.7 4.3 0.00 0.00 0.00 98
20260904110034 79 120 1.7 4.3 0.00 0.00 0.00 99
20260904105549 79 166 1.7 4.3 0.00 0.00 0.00 99
20260904105134 79 198 0.9 4.3 0.00 0.23 0.00 99
20260904104709 79 179 1.7 3.5 0.00 0.00 0.00 99
20260904104254 79 135 0.9 4.3 0.00 0.00 0.00 10
20260904103814 79 143 0.9 3.5 0.00 0.00 0.00 10
20260904103329 79 223 1.7 0.9 0.00 0.00 0.00 10
20260904102859 79 139 0.9 3.5 0.00 0.00 0.00 10
20260904102439 79 146 0.9 3.5 0.00 0.00 0.00 10
20260904102014 79 127 0.9 3.5 0.00 0.00 0.00 10
20260904101524 79 130 1.7 5.2 0.00 0.00 0.00 10
20260904101039 79 149 1.7 5.2 0.00 0.00 0.00 10
20260904100558 79 153 0.9 4.3 0.00 0.00 0.00 10
20260904100149 80 241 0.9 3.5 0.00 0.00 0.00 10
20260904095739 80 216 0.9 3.5 0.00 0.00 0.00 10
20260904095249 80 120 0.0 2.6 0.01 0.23 0.00 10
20260904094834 80 28 0.9 2.6 0.00 0.00 0.00 10
20260904094359 80 111 0.0 4.3 0.00 0.00 0.00 10
20260904093912 80 146 1.7 3.5 0.00 0.00 0.00 10
20260904093434 80 153 0.9 4.3 0.00 0.00 0.00 10
20260904093029 80 129 0.9 3.5 0.00 0.00 0.00 10
20260904092559 80 198 1.7 2.6 0.00 0.00 0.00 10
20260904092119 80 155 1.7 7.0 0.00 0.00 0.00 99
20260904091644 80 218 2.6 6.1 0.00 0.00 0.00 98
20260904091154 81 129 2.6 12.2 0.00 0.00 0.00 95
20260904090754 84 166 1.7 7.8 0.00 0.00 0.00 89
20260904090319 86 91 1.7 6.1 0.00 0.00 0.00 75
20260904085824 86 190 1.7 1.7 0.00 0.00 0.00 76
20260904085337 86 180 2.6 5.2 0.00 0.04 0.00 75
20260904084929 86 150 1.7 6.1 0.00 0.00 0.00 75
20260904084503 86 152 0.9 2.6 0.00 0.00 0.00 75
20260904084029 86 160 0.9 3.5 0.00 0.00 0.00 75
20260904083604 86 197 1.7 4.3 0.00 0.00 0.00 75
20260904083144 86 131 1.7 4.3 0.00 0.00 0.00 74
20260904082649 86 143 2.6 6.1 0.00 0.00 0.00 75
20260904082234 86 170 2.6 6.1 0.00 0.00 0.00 75
20260904081829 86 170 1.7 7.0 0.00 0.00 0.00 76
20260904081334 86 242 1.7 3.5 0.00 0.00 0.00 77
20260904080859 86 215 0.9 6.1 0.00 0.00 0.00 77
20260904080409 86 110 1.7 4.3 0.00 0.00 0.00 77
20260904080004 86 141 1.7 3.5 0.00 0.00 0.00 76
20260904075514 86 218 1.7 5.2 0.00 0.04 0.00 77
20260904075014 86 132 1.7 5.2 0.00 0.00 0.00 79
20260904074614 86 87 1.7 1.7 0.00 0.00 0.00 80
20260904074159 85 240 0.9 6.1 0.00 0.00 0.00 80
20260904073714 85 166 0.9 3.5 0.00 0.00 0.00 82
20260904073244 85 232 0.9 2.6 0.00 0.00 0.00 82
20260904072834 84 168 1.7 2.6 0.00 0.00 0.00 83
20260904072429 84 203 1.7 0.9 0.00 0.00 0.00 83
20260904071934 84 203 2.6 1.7 0.00 0.00 0.00 85
20260904071504 85 182 3.5 5.2 0.00 0.00 0.00 83
20260904071044 87 175 1.7 9.6 0.00 0.00 0.00 80
20260904070619 87 93 1.7 5.2 0.00 0.00 0.00 76
20260904070154 87 20 2.6 4.3 0.00 0.00 0.00 77
20260904065739 87 133 2.6 8.7 0.00 0.00 0.00 75
20260904065259 87 134 2.6 3.5 0.00 0.03 0.00 75
20260904064814 87 36 1.7 4.3 0.00 0.00 0.00 76
20260904064334 87 151 0.9 5.2 0.00 0.00 0.00 77
20260904063854 87 86 1.7 5.2 0.00 0.00 0.00 78
20260904063449 87 179 2.6 6.1 0.00 0.00 0.00 78
20260904063044 86 349 0.9 7.0 0.00 0.00 0.00 78
20260904062639 86 135 0.9 0.0 0.00 0.00 0.00 79
20260904062154 86 109 0.9 0.0 0.00 0.00 0.00 80
20260904061729 86 79 0.0 4.3 0.00 0.00 0.00 80
20260904061319 86 136 1.7 2.6 0.00 0.00 0.00 82
20260904060859 85 80 1.7 7.0 0.00 0.00 0.00 83
20260904060424 85 150 1.7 7.8 0.00 0.00 0.00 84
20260904055937 86 43 1.7 8.7 0.00 0.00 0.00 87
20260904055529 87 196 1.7 8.7 0.00 0.00 0.00 74
20260904055054 88 122 0.9 4.3 0.00 0.02 0.00 73
20260904054604 87 142 0.9 2.6 0.00 0.00 0.00 73
20260904054119 87 176 0.0 1.7 0.00 0.00 0.00 76
20260904053639 87 210 2.6 1.7 0.00 0.00 0.00 75
20260904053149 87 103 1.7 7.8 0.00 0.00 0.00 74
20260904052704 87 130 1.7 4.3 0.00 0.00 0.00 74
20260904052239 87 111 1.7 6.1 0.00 0.00 0.00 75
20260904051829 88 118 1.7 0.9 0.00 0.00 0.00 72
20260904051326 88 136 1.7 2.6 0.00 0.00 0.00 72
20260904050924 89 144 1.7 3.5 0.00 0.00 0.00 71
20260904050429 89 195 1.7 4.3 0.00 0.00 0.00 71
20260904045954 89 165 1.7 3.5 0.00 0.00 0.00 70
20260904045524 89 133 2.6 5.2 0.00 0.00 0.00 70
20260904045034 88 359 2.6 8.7 0.00 0.02 0.00 71
20260904044629 88 50 1.7 9.6 0.00 0.00 0.00 71
20260904044144 88 223 1.7 0.9 0.00 0.00 0.00 72
20260904043649 88 180 1.7 3.5 0.00 0.00 0.00 71
20260904043209 89 137 2.6 4.3 0.00 0.00 0.00 71
20260904042759 90 136 0.9 4.3 0.00 0.00 0.00 74
20260904042354 89 66 2.6 6.1 0.00 0.00 0.00 73
20260904041944 89 174 2.6 7.0 0.00 0.00 0.00 75
20260904041521 89 92 2.6 9.6 0.00 0.00 0.00 76
20260904041049 88 114 2.6 5.2 0.00 0.00 0.00 76
20260904040554 88 176 1.7 7.0 0.00 0.00 0.00 78
20260904040126 87 150 1.7 6.1 0.00 0.00 0.00 79
20260904035709 86 156 0.9 3.5 0.00 0.00 0.00 84
20260904035306 85 247 0.0 4.3 0.00 0.02 0.00 86
20260904034819 84 182 0.0 1.7 0.00 0.00 0.00 91
20260904034349 83 221 0.9 2.6 0.00 0.00 0.00 92
20260904033934 82 111 0.9 0.9 0.00 0.00 0.00 92
20260904033504 82 150 0.0 2.6 0.00 0.00 0.00 94
20260904033054 82 190 0.9 2.6 0.00 0.00 0.00 94
20260904032649 82 190 0.9 2.6 0.00 0.00 0.00 94
20260904032204 82 153 1.7 3.5 0.00 0.00 0.00 93
20260904031749 84 145 0.9 5.2 0.00 0.00 0.00 91
20260904031334 86 150 0.9 0.0 0.00 0.00 0.00 76
20260904030859 86 179 0.9 2.6 0.00 0.00 0.00 76
20260904030424 86 7 1.7 1.7 0.00 0.00 0.00 77
20260904025944 85 127 1.7 4.3 0.00 0.00 0.00 77
20260904025545 85 154 0.9 7.8 0.00 0.00 0.00 76
20260904025049 85 188 1.7 5.2 0.00 0.01 0.00 80
20260904024634 85 169 1.7 0.0 0.00 0.00 0.00 80
20260904024159 85 84 0.9 1.7 0.00 0.00 0.00 83
20260904023734 86 148 1.7 3.5 0.00 0.00 0.00 75
20260904023259 86 200 1.7 4.3 0.00 0.00 0.00 76
20260904022814 86 152 0.9 6.1 0.00 0.00 0.00 75
20260904022349 86 139 0.9 3.5 0.00 0.00 0.00 75
20260904021929 86 90 1.7 3.5 0.00 0.00 0.00 76
20260904021509 86 161 1.7 2.6 0.00 0.00 0.00 76
20260904021054 86 107 1.7 6.1 0.00 0.00 0.00 75
20260904020654 86 88 0.9 5.2 0.00 0.00 0.00 76
20260904020229 86 161 2.6 5.2 0.00 0.00 0.00 75
20260904015824 86 142 1.7 7.0 0.00 0.00 0.00 75
20260904015339 86 165 0.9 6.1 0.00 0.01 0.00 75
20260904014914 86 121 0.9 4.3 0.00 0.00 0.00 76
20260904014459 86 104 0.9 7.8 0.00 0.00 0.00 75
20260904014029 85 119 0.9 7.8 0.00 0.00 0.00 77
20260904013539 85 161 2.6 4.3 0.00 0.00 0.00 78
20260904013124 85 63 0.9 11.3 0.00 0.00 0.00 77
20260904012649 85 357 1.7 4.3 0.00 0.00 0.00 77
20260904012204 85 102 0.9 7.0 0.00 0.00 0.00 78
20260904011754 85 174 0.9 2.6 0.00 0.00 0.00 79
20260904011336 85 87 0.9 2.6 0.00 0.00 0.00 77
20260904010914 84 334 0.9 4.3 0.00 0.00 0.00 78
20260904010434 84 160 1.7 4.3 0.00 0.00 0.00 79
20260904005937 84 106 0.9 6.1 0.00 0.00 0.00 78
20260904005529 84 162 2.6 4.3 0.00 0.00 0.00 78
20260904005034 84 154 1.7 8.7 0.00 0.01 0.00 77
20260904004624 84 128 1.7 1.7 0.00 0.00 0.00 79
20260904004157 83 111 0.9 6.1 0.00 0.00 0.00 79
20260904003729 83 143 0.9 5.2 0.00 0.00 0.00 80
20260904003254 83 111 1.7 5.2 0.00 0.00 0.00 80
20260904002849 83 173 0.9 4.3 0.00 0.00 0.00 79
20260904002439 83 125 1.7 5.2 0.00 0.00 0.00 79
20260904002024 83 272 1.7 5.2 0.00 0.00 0.00 79
20260904001609 83 44 1.7 4.3 0.00 0.00 0.00 78
20260904001119 83 120 0.9 1.7 0.00 0.00 0.00 79
20260904000637 83 141 2.6 2.6 0.00 0.00 0.00 79
20260904000149 83 111 1.7 9.6 0.00 0.00 0.00 79
20260903235729 83 141 2.6 8.7 0.00 0.00 0.00 78
20260903235305 83 38 2.6 8.7 0.00 0.01 0.00 79
20260903234844 83 89 2.6 5.2 0.00 0.00 0.00 78
20260903234354 83 240 1.7 0.9 0.00 0.00 0.00 79
20260903233929 82 140 1.7 3.5 0.00 0.00 0.00 80
20260903233439 82 338 1.7 4.3 0.00 0.00 0.00 80
20260903233039 82 139 1.7 5.2 0.00 0.00 0.00 81
20260903232634 82 100 1.7 7.0 0.00 0.00 0.00 80
20260903232224 82 194 1.7 2.6 0.00 0.00 0.00 80
20260903231804 81 114 1.7 2.6 0.00 0.00 0.00 81
20260903231309 81 121 0.9 6.1 0.00 0.00 0.00 80
20260903230839 81 165 0.9 3.5 0.00 0.00 0.00 80
20260903230434 81 138 1.7 5.2 0.00 0.00 0.00 81
20260903230029 81 135 0.9 7.0 0.00 0.00 0.00 80
20260903225614 81 125 0.9 2.6 0.00 0.00 0.00 80
20260903225134 81 155 0.9 2.6 0.00 0.01 0.00 80
20260903224644 81 133 1.7 3.5 0.00 0.00 0.00 80
20260903224214 81 211 1.7 7.0 0.00 0.00 0.00 80
20260903223749 81 158 1.7 8.7 0.00 0.00 0.00 80
20260903223324 81 164 1.7 6.1 0.00 0.00 0.00 80
20260903222829 81 178 0.0 6.1 0.00 0.00 0.00 80